Regional Weather Roundup
Issued by NWS

Home | Current Version | Previous Version | Graphics & Text | Print | Product List | Glossary On
Versions: 1 2 3 4 5 6 7 8 9 10 11 12 13 14 15 16 17 18 19 20 21 22 23 24 25 26 27 28 29 30 31 32 33 34 35 36 37 38 39 40 41 42 43 44 45 46 47 48 49 50
000
ASUS43 KDMX 290507
RWRIA

WEATHER ROUNDUP FOR IOWA
NATIONAL WEATHER SERVICE DES MOINES IA
1200 AM CDT SAT AUG 29 2015

NOTE: "FAIR" INDICATES FEW OR NO CLOUDS BELOW 12,000 FEET WITH NO
SIGNIFICANT WEATHER AND/OR OBSTRUCTIONS TO VISIBILITY.

* - THESE STATIONS ARE NOT NWS STATIONS...THUS NOT UNDER NWS
QUALITY CONTROL.  THEY ALSO DO NOT REPORT WEATHER SUCH
AS PRECIPITATION OR FOG.

IAZ001>003-012>014-020>022-031>034-043>046-290600-
   NORTHWEST IOWA

CITY           SKY/WX    TMP DP  RH WIND       PRES   REMARKS
CARROLL *      CLOUDY    61  61 100 N7        29.95S FOG
CHEROKEE *     CLOUDY    61  59  94 N6        29.99S
DENISON *      CLOUDY    61  61 100 N8        29.96R
LE MARS *      CLOUDY    61  59  94 N6        30.02S
ORANGE CITY *  CLOUDY    61  57  88 N5        30.01S
SHELDON *      CLOUDY    59  57  94 N7        30.01S
SIOUX CITY     CLOUDY    63  57  81 N8        30.00S
SPENCER        CLOUDY    60  56  86 N8        30.00F
STORM LAKE *   CLOUDY    59  59 100 N12       29.98F FOG
$$

IAZ055>058-069>071-079>083-090>094-290600-
   SOUTHWEST IOWA

CITY           SKY/WX    TMP DP  RH WIND       PRES   REMARKS
ATLANTIC *     CLOUDY    64  64 100 CALM      29.94S
AUDUBON *      CLOUDY    63  61  94 N8        29.96S FOG
CLARINDA *     CLOUDY    68  68 100 NW8       29.95S
COUNCIL BLFS * CLOUDY    63  63 100 N7        29.96S FOG
CRESTON *      CLOUDY    70  68  94 W7        29.95R
HARLAN  *      CLOUDY    63 N/A N/A N9        29.98F
LAMONI         CLOUDY    71  67  87 S9        29.93S
RED OAK *      CLOUDY    66  66 100 NW6G13    29.95R
SHENANDOAH *   CLOUDY    68  66  94 NW5       29.95S
$$

IAZ047>049-059>061-072>074-084-290600-
   CENTRAL IOWA

CITY           SKY/WX    TMP DP  RH WIND       PRES   REMARKS
AMES           CLOUDY    68  67  96 CALM      29.91S FOG
ANKENY *       CLOUDY    68  68 100 S6        29.90F
CHARITON *     CLOUDY    70  66  88 S8        29.93S
DES MOINES     CLOUDY    71  67  87 S7        29.91R
GRINNELL*      CLOUDY    66  64  94 SE7       29.94S
KNOXVILLE *    CLOUDY    70  66  88 S9        29.91S
MARSHALLTOWN   CLOUDY    66  64  93 SE10      29.91S
PELLA *        MOCLDY    69  69 100 S6        29.93S
PERRY *        FOG       64  64 100 N9        29.92S VSB 3/4
$$

IAZ004>006-015-016-023>025-035-036-290600-
   NORTH CENTRAL IOWA

CITY           SKY/WX    TMP DP  RH WIND       PRES   REMARKS
ALGONA *       CLOUDY    59  59 100 N7        29.98S
CLARION *      CLOUDY    61  59  94 NE9       29.94S
ESTHERVILLE    CLOUDY    58  57  97 NE6       30.00S
FORT DODGE *   CLOUDY    61  57  88 N6        29.95S
MASON CITY     CLOUDY    60  59  96 NE8       29.97S
FOREST CITY *  CLOUDY    59  59 100 NE6       29.97F
IOWA FALLS *   DRIZZLE   63  63 100 NE5       29.94S
$$

IAZ007>011-017>019-026>030-037>042-050>054-066-290600-
   NORTHEAST IOWA

CITY           SKY/WX    TMP DP  RH WIND       PRES   REMARKS
CEDAR RAPIDS   CLOUDY    65  65 100 SE8       29.94F
CHARLES CITY * CLOUDY    61  61 100 E14       29.96F FOG
CLINTON *      CLOUDY    64  63  94 NE6       30.07R
DECORAH *      CLOUDY    61  61 100 E13       29.98F
DUBUQUE        RAIN      64  64 100 S22G29    29.96F FOG
MONTICELLO *   CLOUDY    66  64  94 SE12G21   29.96R FOG
OELWEIN *      RAIN      64  64 100 N6        29.95S
WATERLOO       LGT RAIN  65  64  97 N7        29.92S FOG
$$

IAZ064-065-067-068-078-290600-
   EAST CENTRAL IOWA

CITY           SKY/WX    TMP DP  RH WIND       PRES   REMARKS
DAVENPORT      LGT RAIN  66  64  93 SE8       30.01S
IOWA CITY      RAIN      66  66 100 SE8       29.96S
MT. PLEASANT * CLOUDY    72  61  68 SE8       29.96F
MUSCATINE *    CLOUDY    68  63  83 S15       29.96F
QUAD CITIES    RAIN      67  62  84 SE9       30.00F
$$

IAZ062-063-075>077-085>089-095>099-290600-
   SOUTHEAST IOWA

CITY           SKY/WX    TMP DP  RH WIND       PRES   REMARKS
BURLINGTON     CLOUDY    70  64  81 S6        29.98S
FAIRFIELD *    CLOUDY    70  63  78 S8        29.95F
FORT MADISON * CLOUDY    70  64  83 S8        29.98F
KEOKUK *       CLOUDY    72  64  78 S9G16     29.97S
OSKALOOSA *    CLOUDY    68  64  88 CALM      29.94F
CENTERVILLE *  MOCLDY    68  66  94 S9        29.96S
OTTUMWA        CLOUDY    69  67  93 S6        29.92F
WASHINGTON *     N/A    N/A N/A N/A MISG        N/A
$$

ABBREVIATIONS USED IN REMARKS
   TC - TEMPERATURES IN CELSIUS
  WCI - WIND CHILL INDEX
   HX - HEAT INDEX
  VSB - VISIBILITY
$$



USA.gov is the U.S. government's official web portal to all federal, state and local government web resources and services.